Wind_Speed
60 58 57 52 44 37 37 36 33 31 31 28 24 21 20 18 17 18 18 17 18 20 22 24 25 25 25 25 24 24 24 25 26 27 29 32 33 35 35 35 35 35 35 35
61 59 52 46 43 41 40 37 33 32 31 28 25 21 20 19 19 19 19 18 19 21 23 24 24 24 23 23 23 24 26 28 29 31 33 34 34 35 35 35 36 36 37 38
60 56 50 47 45 42 39 35 32 31 30 28 25 22 21 21 21 20 19 18 19 20 22 23 23 23 22 22 23 26 28 31 33 34 34 34 34 35 35 36 37 38 40 42
57 53 49 46 43 40 35 32 32 32 30 27 25 22 20 22 21 21 20 20 20 21 21 22 23 23 24 24 26 29 31 33 33 34 33 33 34 36 37 38 40 42 44 46
57 52 49 44 39 35 32 33 33 32 30 26 23 22 18 21 22 23 23 22 22 22 23 24 25 26 27 29 30 31 32 32 32 32 33 35 36 38 40 42 44 45 47 49
54 49 46 41 36 34 34 33 32 31 29 25 20 22 16 20 23 24 23 23 23 24 26 27 28 29 31 32 32 32 31 31 32 34 36 37 39 41 43 44 46 48 49 51
53 49 45 41 39 37 36 34 32 30 28 23 21 21 16 20 22 23 24 24 25 26 28 29 30 32 33 34 33 32 33 34 35 37 39 40 41 43 44 46 47 49 52 55
52 49 46 43 41 37 34 32 30 28 26 24 23 21 18 20 22 23 24 25 26 28 30 31 32 33 34 34 34 34 35 37 38 39 40 41 43 44 46 48 51 54 57 61
50 46 44 42 39 36 34 32 29 29 27 24 23 19 18 20 22 24 25 26 28 30 31 31 32 32 33 34 35 36 38 39 40 41 41 43 44 47 50 53 57 61 65 68
48 45 43 41 39 38 35 31 31 30 27 25 23 20 20 20 22 24 25 26 28 29 29 29 30 32 34 35 36 38 39 40 41 42 43 46 48 52 55 59 63 66 70 73
44 43 43 42 41 38 35 34 31 29 28 26 24 21 19 20 22 24 24 25 26 27 27 29 31 34 35 36 37 38 39 40 42 44 46 49 53 57 61 65 68 72 75 78
40 40 39 40 39 37 34 32 31 30 28 27 25 22 20 20 22 24 24 25 25 26 28 31 33 35 36 37 37 38 39 41 43 46 50 54 58 62 66 70 73 76 79 81
37 37 38 39 40 38 36 33 31 30 29 28 25 22 22 23 24 25 25 25 26 28 30 32 34 35 37 37 38 39 41 44 48 52 56 60 64 68 71 74 76 78 80 82
33 35 36 36 33 31 31 29 29 29 29 26 22 20 23 25 27 26 26 26 28 30 32 34 35 36 37 38 39 42 46 50 54 58 61 65 68 71 74 76 78 80 82 85
31 32 32 33 32 30 29 28 28 28 26 25 23 24 26 28 28 26 26 28 30 31 33 35 36 37 38 40 43 47 52 56 59 62 65 69 71 74 76 78 80 83 86 89
29 29 30 30 29 28 29 29 29 29 28 27 26 26 28 29 28 27 28 29 31 33 34 35 36 38 41 45 49 53 56 59 62 65 68 71 73 75 78 81 83 86 89 91
27 28 28 27 26 27 28 27 27 27 27 26 27 26 27 29 29 29 30 31 33 34 34 36 38 42 46 49 53 56 59 62 64 67 70 73 75 78 81 83 86 88 91 92
26 27 27 26 27 29 26 26 27 27 27 26 26 26 27 28 29 30 31 33 34 34 36 39 43 46 50 53 56 59 61 64 67 70 72 75 78 80 83 86 88 90 91 90
25 25 25 26 27 27 26 25 26 26 27 27 27 26 27 28 30 32 32 33 35 37 40 43 47 50 54 56 59 61 64 66 69 72 75 77 80 82 85 87 88 89 88 85
24 24 25 25 26 26 26 26 27 29 29 27 27 27 28 29 31 32 33 35 38 41 44 48 51 54 56 59 61 64 66 69 71 74 77 79 81 84 86 87 87 86 84 82
21 22 24 26 27 27 26 26 27 29 28 27 27 28 28 29 31 32 35 38 42 45 49 52 55 57 60 62 64 66 68 71 73 75 78 80 83 85 85 85 84 82 80 79
18 19 20 22 23 24 23 24 25 26 26 26 26 27 28 30 33 36 39 43 46 50 53 56 58 61 63 64 66 68 70 71 74 76 79 81 83 84 83 82 80 78 78 79
15 15 16 18 19 19 21 23 24 25 26 26 27 29 31 34 37 41 44 47 51 54 57 60 62 63 64 65 66 68 70 72 75 77 80 82 82 81 80 78 77 77 78 80
15 16 18 20 21 22 23 24 26 27 28 29 31 33 36 39 42 45 49 53 56 59 60 61 62 63 64 65 66 68 71 73 76 79 81 81 80 78 76 75 75 76 78 81
19 20 21 22 23 24 24 26 28 29 31 33 35 38 41 44 47 51 54 57 59 60 61 60 61 62 63 65 67 70 73 76 79 80 81 79 77 75 73 72 73 76 78 82
25 25 25 24 24 26 27 28 30 32 34 37 40 42 46 49 52 55 57 59 59 59 59 59 60 61 63 66 69 72 76 78 80 80 78 76 74 73 72 71 71 74 78 81
Wind_Direction
204 209 212 214 217 216 216 215 216 222 230 230 228 226 234 239 242 244 247 253 260 265 269 272 273 273 273 271 271 271 274 278 281 285 288 291 292 293 293 292 293 293 293 293
204 209 211 213 213 214 215 215 218 224 231 231 229 228 233 238 239 242 249 257 262 267 270 270 271 270 268 266 267 271 275 279 282 285 288 289 289 289 290 290 291 291 291 292
205 207 208 210 211 213 214 215 220 225 230 231 229 228 233 237 240 244 250 258 264 268 269 269 269 268 266 267 271 275 278 281 283 285 286 287 287 287 288 289 290 291 292 293
204 206 208 209 210 211 212 216 221 225 229 230 231 228 232 239 242 247 251 257 262 266 268 268 268 268 269 272 276 279 282 283 284 284 284 285 286 287 289 290 291 293 294 295
203 205 207 209 209 211 211 217 222 226 229 230 231 235 222 240 242 245 249 255 260 263 265 266 267 269 273 277 281 284 285 285 284 283 284 285 287 289 290 292 294 295 296 297
203 204 207 207 207 208 211 218 222 226 229 230 233 241 226 242 244 247 250 255 259 261 264 266 269 273 276 280 284 286 286 285 284 284 285 287 290 292 294 295 297 299 300 301
201 203 204 204 206 207 210 216 222 226 231 231 234 243 240 247 248 249 252 257 261 264 266 269 272 275 278 282 284 285 284 284 284 286 288 290 292 295 297 299 300 301 302 303
202 202 201 203 207 211 214 219 225 231 233 234 236 243 248 252 253 254 256 259 262 265 268 271 274 276 279 281 282 282 283 284 285 287 290 293 296 299 300 301 302 303 304 305
203 204 203 205 209 212 216 221 226 232 235 237 240 244 251 254 255 256 257 258 260 264 268 272 275 277 277 278 280 281 283 285 288 292 295 298 301 302 303 304 305 306 306 306
205 206 206 208 211 214 217 221 226 232 237 241 243 247 253 254 254 255 257 259 261 265 269 273 274 275 276 278 280 283 286 290 294 297 299 301 303 304 306 306 307 307 307 307
205 207 209 211 214 217 220 224 228 233 238 243 247 250 252 252 252 253 253 256 260 264 268 270 273 276 278 280 283 287 290 293 296 298 300 302 304 306 307 308 308 308 308 307
203 205 208 213 216 218 221 226 231 236 242 247 251 248 247 247 248 251 253 257 262 266 270 273 276 278 280 283 287 290 293 295 298 300 303 305 306 308 309 309 309 309 308 307
202 204 206 210 214 218 222 226 230 235 241 246 249 247 241 241 245 250 255 261 267 272 275 277 279 281 284 287 290 293 296 299 301 303 305 307 308 309 310 310 309 309 308 307
202 206 209 214 219 223 227 229 234 240 244 247 247 242 241 242 245 251 259 266 272 276 278 280 282 285 288 291 295 298 301 303 305 307 308 309 310 310 310 310 309 309 308 308
202 205 208 212 215 219 224 229 233 238 241 241 235 236 240 247 252 259 267 273 277 279 281 283 285 289 294 298 301 303 304 306 307 308 309 310 310 311 310 310 310 309 309 309
202 207 211 214 216 219 223 224 226 230 233 234 234 238 247 255 263 270 274 277 279 281 283 286 291 296 300 302 303 305 306 307 308 309 310 310 310 311 311 310 310 310 310 311
208 210 213 216 218 221 223 224 227 231 234 238 242 247 256 265 272 276 277 279 281 283 286 291 296 299 301 302 303 305 306 308 309 309 310 310 311 311 311 311 311 311 312 313
206 211 214 217 220 223 225 228 232 236 241 247 253 257 262 267 272 274 277 278 281 285 290 295 298 300 301 303 304 306 307 308 309 310 310 311 311 311 311 312 312 313 314 314
207 211 215 219 225 227 229 233 238 244 248 253 258 261 264 268 271 273 275 278 283 289 293 296 298 300 302 304 306 307 308 308 309 310 310 311 311 312 312 313 314 315 315 315
209 215 221 226 232 238 238 241 245 249 252 255 259 261 263 266 268 272 276 282 287 291 295 298 300 302 304 305 306 306 307 308 309 310 310 311 312 313 314 315 316 316 316 315
214 220 227 232 237 242 245 246 249 253 257 258 259 260 262 264 270 276 281 286 290 294 297 300 302 303 303 304 305 305 306 308 309 310 311 313 314 315 316 317 316 316 315 315
214 222 228 234 239 243 247 250 250 253 255 256 257 260 264 270 275 281 286 290 294 297 299 301 302 302 303 304 305 306 307 309 310 312 314 315 316 317 317 317 316 316 316 317
227 233 238 241 246 248 248 250 250 252 255 257 260 265 271 276 282 287 291 295 297 299 300 301 302 302 303 304 306 307 309 311 313 314 316 317 317 317 317 317 316 316 317 318
245 249 250 250 251 251 250 251 253 255 258 262 267 272 278 283 287 291 294 296 297 299 300 301 302 303 304 306 307 309 311 313 314 316 317 317 317 317 317 316 316 317 319 320
263 263 261 261 260 259 257 256 257 259 263 268 273 278 283 286 289 292 294 296 298 300 301 302 303 304 306 308 309 311 313 314 316 317 317 317 317 316 316 316 317 318 320 322
270 269 268 268 266 262 260 259 261 264 268 273 277 281 284 287 291 294 296 298 300 301 302 303 304 306 308 309 311 313 314 316 317 318 317 317 316 316 316 316 317 319 321 323
Height
5698 5707 5716 5729 5741 5752 5757 5763 5768 5772 5773 5778 5782 5785 5787 5789 5792 5795 5797 5799 5800 5801 5802 5802 5802 5801 5801 5800 5799 5799 5799 5798 5797 5796 5794 5792 5790 5788 5785 5782 5779 5777 5774 5771
5694 5703 5716 5727 5737 5744 5750 5758 5764 5767 5770 5774 5778 5781 5783 5786 5788 5791 5793 5794 5795 5796 5796 5796 5796 5796 5795 5795 5794 5794 5794 5793 5792 5790 5788 5786 5783 5781 5778 5775 5772 5769 5766 5763
5690 5702 5713 5722 5730 5738 5747 5755 5760 5763 5766 5770 5774 5778 5780 5782 5784 5786 5788 5789 5790 5791 5791 5791 5791 5791 5790 5790 5790 5790 5789 5788 5786 5784 5781 5779 5776 5773 5770 5767 5764 5761 5757 5753
5687 5699 5709 5718 5727 5736 5745 5751 5754 5758 5762 5766 5770 5774 5778 5779 5780 5782 5783 5784 5785 5785 5786 5786 5786 5786 5786 5786 5785 5784 5783 5782 5780 5777 5774 5771 5768 5765 5762 5759 5756 5752 5748 5744
5684 5695 5705 5715 5726 5735 5742 5745 5750 5753 5757 5762 5766 5768 5775 5774 5776 5777 5778 5779 5779 5780 5780 5781 5781 5781 5781 5780 5779 5778 5776 5774 5772 5770 5767 5764 5761 5758 5755 5751 5748 5744 5740 5735
5683 5693 5703 5714 5723 5730 5735 5740 5745 5748 5753 5760 5763 5764 5770 5770 5771 5772 5774 5773 5773 5774 5775 5775 5776 5776 5775 5774 5772 5770 5768 5766 5764 5762 5759 5756 5753 5750 5747 5743 5739 5735 5730 5725
5677 5688 5699 5709 5716 5723 5729 5735 5741 5745 5750 5756 5758 5760 5766 5765 5766 5767 5768 5768 5767 5768 5769 5769 5770 5770 5768 5767 5765 5763 5761 5759 5757 5754 5752 5749 5745 5742 5738 5734 5730 5725 5720 5714
5674 5684 5695 5705 5713 5720 5726 5733 5739 5743 5746 5750 5753 5756 5761 5760 5760 5761 5762 5761 5761 5762 5762 5763 5763 5763 5762 5760 5758 5756 5754 5752 5749 5747 5744 5740 5737 5733 5728 5724 5719 5714 5708 5702
5674 5685 5694 5702 5710 5717 5722 5728 5734 5737 5741 5745 5748 5753 5755 5755 5755 5755 5755 5755 5755 5755 5756 5757 5757 5757 5755 5753 5751 5749 5747 5744 5742 5739 5735 5731 5727 5722 5717 5712 5706 5700 5694 5687
5673 5683 5691 5699 5706 5712 5719 5723 5727 5731 5735 5739 5744 5747 5750 5749 5749 5749 5749 5749 5749 5750 5751 5752 5751 5750 5748 5746 5744 5742 5739 5737 5733 5730 5726 5721 5716 5711 5706 5700 5693 5686 5678 5671
5671 5680 5688 5695 5701 5708 5714 5719 5723 5727 5731 5735 5739 5744 5744 5743 5743 5743 5744 5744 5744 5745 5746 5746 5745 5743 5741 5739 5737 5735 5732 5728 5724 5720 5716 5711 5705 5699 5693 5686 5679 5671 5662 5654
5668 5677 5684 5692 5699 5705 5710 5715 5719 5723 5727 5730 5733 5740 5738 5738 5737 5738 5738 5739 5740 5741 5741 5740 5738 5736 5734 5732 5729 5727 5723 5719 5715 5710 5705 5699 5693 5687 5680 5672 5663 5654 5645 5636
5667 5674 5680 5686 5694 5699 5704 5709 5714 5718 5721 5724 5727 5734 5732 5732 5732 5733 5734 5735 5735 5735 5734 5733 5731 5729 5726 5724 5721 5717 5714 5709 5704 5699 5693 5687 5680 5672 5664 5656 5647 5638 5628 5618
5666 5672 5679 5685 5692 5698 5702 5707 5711 5714 5716 5719 5723 5726 5725 5725 5726 5728 5729 5730 5730 5729 5727 5725 5723 5721 5718 5715 5712 5708 5703 5698 5693 5686 5680 5673 5665 5657 5648 5639 5630 5620 5610 5599
5664 5670 5675 5682 5688 5693 5698 5702 5705 5708 5711 5714 5717 5718 5718 5719 5721 5724 5725 5724 5723 5722 5720 5718 5715 5712 5709 5706 5702 5697 5692 5686 5679 5673 5665 5657 5649 5640 5631 5621 5611 5601 5590 5578
5663 5669 5674 5679 5684 5688 5692 5696 5699 5702 5704 5707 5710 5712 5713 5714 5717 5718 5718 5717 5716 5714 5712 5710 5707 5704 5700 5696 5691 5685 5679 5673 5666 5658 5650 5642 5633 5623 5614 5604 5593 5582 5570 5557
5663 5668 5673 5677 5680 5684 5688 5692 5695 5698 5700 5703 5705 5709 5709 5710 5710 5711 5710 5709 5708 5706 5704 5702 5698 5695 5690 5685 5679 5673 5666 5659 5651 5643 5635 5626 5616 5606 5596 5585 5574 5562 5549 5535
5662 5666 5669 5673 5677 5681 5687 5688 5691 5693 5696 5699 5701 5703 5703 5703 5703 5702 5702 5701 5700 5698 5696 5692 5688 5684 5678 5672 5666 5659 5652 5644 5636 5627 5618 5609 5600 5589 5577 5565 5553 5540 5527 5514
5660 5664 5667 5671 5673 5677 5682 5685 5687 5690 5692 5693 5694 5696 5696 5696 5695 5695 5694 5693 5691 5689 5686 5682 5677 5672 5666 5659 5652 5645 5638 5629 5621 5612 5602 5592 5582 5571 5558 5546 5532 5519 5507 5494
5658 5662 5666 5668 5671 5674 5680 5681 5682 5684 5685 5687 5688 5688 5689 5689 5688 5688 5686 5685 5682 5679 5675 5670 5665 5659 5653 5646 5639 5632 5624 5615 5606 5596 5586 5575 5564 5551 5538 5525 5512 5499 5487 5475
5656 5659 5662 5665 5667 5669 5673 5675 5676 5679 5681 5681 5680 5681 5681 5681 5681 5680 5678 5676 5672 5668 5664 5658 5653 5646 5640 5633 5626 5618 5609 5600 5589 5579 5568 5556 5544 5531 5518 5505 5492 5480 5469 5458
5654 5656 5658 5661 5662 5667 5668 5668 5670 5672 5672 5673 5673 5674 5674 5674 5673 5671 5669 5666 5661 5656 5651 5646 5640 5633 5627 5619 5611 5603 5594 5584 5573 5562 5550 5538 5525 5512 5499 5487 5475 5462 5450 5439
5651 5654 5656 5658 5661 5661 5662 5662 5663 5664 5665 5666 5667 5667 5667 5666 5664 5661 5658 5654 5649 5644 5638 5632 5626 5619 5611 5603 5595 5586 5577 5566 5556 5544 5532 5520 5507 5494 5481 5469 5458 5447 5434 5422
5647 5649 5651 5652 5653 5654 5655 5656 5657 5658 5659 5659 5659 5659 5658 5655 5653 5650 5646 5641 5636 5631 5625 5618 5611 5603 5595 5586 5578 5570 5561 5550 5539 5528 5515 5503 5491 5479 5467 5454 5442 5430 5418 5406
5642 5643 5644 5645 5647 5648 5649 5650 5650 5651 5651 5651 5650 5649 5647 5644 5641 5638 5633 5628 5623 5616 5609 5602 5594 5587 5579 5570 5562 5554 5544 5534 5523 5511 5498 5486 5474 5463 5453 5442 5429 5416 5405 5389
5635 5636 5638 5639 5640 5641 5642 5642 5643 5643 5643 5642 5640 5639 5636 5633 5629 5624 5619 5614 5607 5601 5594 5586 5579 5572 5564 5555 5546 5537 5527 5517 5505 5494 5482 5470 5459 5448 5438 5428 5420 5407 5392 5379